カタログに戻る

STARLINK-31845

運用中通信VLEO
NORAD 60129·PAYLOAD·🇺🇸 United States

打ち上げ Jun 24, 2024 から Vandenberg Space Force Base

Loading…

次のパス (今後24時間)

TLE

最新Source: CelesTrak SupGP

元期: Sep 14, 2026, 21:27 UTC

1 60129C 24118S   26257.89423611  .00038148  00000+0  11269-2 0  2571
2 60129  53.1583 223.8155 0001474  94.4976 195.3792 15.34377839    13

AllMySatでSTARLINK-31845をリアルタイム追跡

Download on the App Store